[[{"header":{"parameterUnit":"m.s-1","parameterCategory":1,"la1":30.2991,"la2":30.254,"lo1":-89.0895,"lo2":-89.0444,"dy":0.0017,"dx":0.0017,"nx":28,"ny":28,"refTime":"2026-02-16T03:00:00:Z","depth":0,"parameterNumber":2,"parameterNumberName":"U-component_of_WINDS"},"data":[0,0,0,0,0,0,0,0,0,0,0,0,0,0,0,0,0,0,0,0,0,0,0,0,0,0,0,0,0,0,0,0,0,0,0,0,0,0,0,0,0,0,0,0,0,0,0,0,0,0,0,0,0,0,0,0,0,0,6.4504,6.4504,0,6.4517,6.4518,6.4518,6.4472,6.447,6.4469,6.4468,6.4481,6.4483,6.4484,0,0,0,0,0,0,0,0,0,0,0,0,0,6.444,6.4442,6.4504,6.4504,6.4504,6.4517,6.4518,6.4518,6.4472,6.447,6.4469,6.4467,6.4481,6.4483,6.4484,0,0,0,0,0,0,0,0,0,0,0,0,0,6.4462,6.4442,6.4504,6.4483,6.4481,6.4517,6.4518,6.4518,6.4472,6.447,6.4468,6.4466,6.448,6.4482,6.4485,6.4542,0,0,6.4492,6.4493,0,0,0,0,0,0,0,0,6.4461,6.4465,6.4486,6.4484,6.4482,6.4491,6.45,6.4526,6.4473,6.4476,6.4468,6.4465,6.4486,6.4488,6.4495,6.4542,6.4543,6.4493,6.4494,6.4495,6.4496,0,0,0,0,0,0,0,6.446,6.4464,6.4509,6.4486,6.4484,6.4474,6.4474,6.4505,6.4492,6.4475,6.4472,6.4474,6.4485,6.4493,6.4495,6.4543,6.4492,6.4495,6.4496,6.4497,6.4644,6.4646,0,0,0,0,0,0,6.4461,6.4463,6.4509,6.4509,6.4466,6.4476,6.4477,6.449,6.4492,6.449,6.4476,6.4472,6.4489,6.4492,6.4495,6.4566,6.4495,6.4497,6.4499,6.4642,6.4644,6.4647,0,0,0,0,0,0,6.446,6.4465,6.4508,6.4485,6.449,6.448,6.4495,6.4492,6.4499,6.4492,6.449,6.4486,6.4488,6.4492,6.4532,6.4566,6.4499,6.4501,6.4639,6.4642,6.4646,6.4705,0,0,0,0,0,0,6.4458,6.4465,6.4486,6.4486,6.4491,6.4544,6.4496,6.4493,6.4504,6.4499,6.4501,6.45,6.4487,6.4528,6.4534,6.4568,6.4503,6.4636,6.464,6.4645,6.47,6.4711,6.4719,0,0,0,0,0,6.4456,6.45,6.4487,6.4493,6.4517,6.4546,6.4549,6.4533,6.4507,6.4528,6.4525,6.45,6.4561,6.4533,6.4539,6.4574,6.4633,6.4639,6.4644,6.4696,6.4709,6.4719,0,0,0,0,0,0,6.4502,6.45,6.4485,6.4531,6.4539,6.4538,6.4564,6.4546,6.4561,6.4555,6.4535,6.4536,6.4581,6.4581,6.455,6.4632,6.4593,6.46,6.463,6.4642,6.4651,6.4651,6.4505,0,0,0,0,0,6.4518,6.4542,6.4538,6.4579,6.4584,6.4574,6.4586,6.4573,6.4581,6.4584,6.4582,6.4591,6.4613,6.4627,6.4646,6.47,6.4702,6.4728,6.4737,6.4745,6.4752,6.4785,6.4798,6.4665,6.4665,6.4665,0,0,6.4551,6.4552,6.4568,6.4589,6.4594,6.462,6.4577,6.4605,6.4625,6.4588,6.4627,6.4627,6.4635,6.4684,6.4705,6.4686,6.4789,6.4752,6.4758,6.4761,6.4792,6.4805,6.4816,6.4669,6.4668,6.4667,0,0,6.4624,6.4626,6.4663,6.467,6.4679,6.4672,6.4682,6.4684,6.4683,6.4722,6.4697,6.472,6.4756,6.4765,6.4774,6.4857,6.4836,6.4863,6.4913,6.4946,6.4957,6.4966,6.4999,6.5011,6.487,6.487,6.487,0,6.4663,6.4701,6.4684,6.4716,6.4728,6.4697,6.4736,6.4743,6.4758,6.4767,6.4745,6.4793,6.4796,6.4849,6.487,6.4877,6.4889,6.4863,6.4957,6.4966,6.4974,6.5006,6.5018,6.4873,6.4873,6.4873,6.4872,0,6.4752,6.4779,6.4807,6.4825,6.4839,6.4874,6.4864,6.4881,6.4869,6.4865,6.4908,6.4911,6.4933,6.4944,6.4931,6.4997,6.4985,6.496,6.4921,6.4991,6.502,6.5032,6.4879,6.4877,6.4876,6.4875,0,0,6.4852,6.4863,6.4874,6.4884,6.4894,6.4915,6.495,6.4972,6.4989,6.5001,6.5032,6.5066,6.5045,6.5056,6.5043,6.5072,6.5143,6.5044,6.5044,6.5065,6.522,6.5241,6.5255,6.5129,6.5131,6.5133,6.5221,0,6.4928,6.4988,6.4976,6.5037,6.5064,6.5038,6.5069,6.5079,6.5078,6.5102,6.51,6.5127,6.5094,6.5101,6.5128,6.5128,6.5174,6.5121,6.516,6.5161,6.5161,6.5269,6.529,6.5373,6.5232,6.5234,6.5235,0,6.5022,6.5041,6.5105,6.5115,6.5126,6.5154,6.5176,6.5199,6.5211,6.5209,6.5224,6.5207,6.5245,6.5205,6.5258,6.5223,6.5238,6.5241,6.5244,6.5248,6.5204,6.5279,6.5398,6.5412,6.5252,6.5251,6.525,0,6.5095,6.5135,6.518,6.5188,6.52,6.5221,6.5227,6.5238,6.5254,6.5273,6.5284,6.5307,6.5321,6.534,6.5332,6.5303,6.5389,6.5346,6.539,6.539,6.5409,6.5409,6.5535,6.5416,6.5415,6.5415,6.5415,0,6.5181,6.5222,6.5213,6.524,6.5287,6.5274,6.532,6.5323,6.5334,6.5363,6.5341,6.5369,6.5355,6.5383,6.5376,6.5424,6.5429,6.543,6.5429,6.5434,6.5434,6.5444,6.5439,6.5419,6.5418,6.5417,6.5417,0,6.5269,6.5264,6.5312,6.5321,6.5324,6.5358,6.5366,6.5394,6.5392,6.543,6.5438,6.5436,6.5468,6.5462,6.5496,6.5492,6.5553,6.5543,6.5549,6.5548,6.5593,6.559,6.5732,6.5752,6.5617,6.5618,6.5619,0,6.5325,6.5357,6.537,6.5389,6.5397,6.5427,6.5444,6.5433,6.5452,6.5472,6.5498,6.5529,6.5552,6.5605,6.5608,6.5635,6.5627,6.5676,6.5631,6.5637,6.5632,6.5631,6.5636,6.5685,6.5686,6.5687,6.5688,0,6.5427,6.5425,6.545,6.5477,6.5499,6.5519,6.5536,6.5553,6.5544,6.5567,6.5601,6.562,6.5657,6.5689,6.5716,6.5723,6.5706,6.5703,6.5715,6.5721,6.5725,6.5727,6.5576,6.5699,6.5698,6.5697,6.5697,6.5696,6.5503,6.5532,6.5547,6.5578,6.5591,6.561,6.5637,6.5641,6.5668,6.5699,6.5691,6.573,6.5746,6.5781,6.5792,6.5824,6.5806,6.5822,6.5827,6.5832,6.5839,6.5719,6.5828,6.5828,6.5827,6.5827,6.5827,0,6.5607,6.5617,6.5645,6.5673,6.5698,6.568,6.57,6.5723,6.5758,6.5774,6.58,6.5841,6.5873,6.5879,6.591,6.5935,6.5928,6.5943,6.5943,6.5946,6.5851,6.5839,6.5949,6.5949,6.5949,6.5949,6.5949,6.5949,6.5664,6.5713,6.5713,6.5769,6.5779,6.5818,6.5832,6.585,6.5864,6.5911,6.5938,6.5942,6.5956,6.5989,6.6018,6.602,6.6033,6.6053,6.6052,6.5964,6.5951,6.594,6.5929,6.6055,6.6056,6.6144,6.6144,6.6145]},{"header":{"parameterUnit":"m.s-1","parameterCategory":1,"la1":30.2991,"la2":30.254,"lo1":-89.0895,"lo2":-89.0444,"dy":0.0017,"dx":0.0017,"nx":28,"ny":28,"refTime":"2026-02-16T03:00:00:Z","depth":0,"parameterNumber":3,"parameterNumberName":"V-component_of_WINDS"},"data":[0,0,0,0,0,0,0,0,0,0,0,0,0,0,0,0,0,0,0,0,0,0,0,0,0,0,0,0,0,0,0,0,0,0,0,0,0,0,0,0,0,0,0,0,0,0,0,0,0,0,0,0,0,0,0,0,0,0,0.5266,0.5268,0,0.543,0.5432,0.5434,0.5458,0.5457,0.5455,0.5454,0.5624,0.563,0.5636,0,0,0,0,0,0,0,0,0,0,0,0,0,0.4973,0.4978,0.5266,0.5268,0.527,0.543,0.5432,0.5434,0.5458,0.5457,0.5455,0.5453,0.5622,0.5629,0.5636,0,0,0,0,0,0,0,0,0,0,0,0,0,0.5115,0.498,0.5265,0.5301,0.5306,0.5429,0.5432,0.5435,0.5459,0.5457,0.5454,0.5452,0.562,0.5629,0.5637,0.5738,0,0,0.5665,0.5669,0,0,0,0,0,0,0,0,0.5107,0.5126,0.5294,0.5299,0.5304,0.5421,0.5392,0.5537,0.5459,0.5401,0.5454,0.5451,0.5559,0.5573,0.5608,0.5746,0.5753,0.5665,0.5671,0.5675,0.5677,0,0,0,0,0,0,0,0.5097,0.5119,0.5331,0.5296,0.5303,0.5309,0.5327,0.5419,0.549,0.5406,0.5408,0.5427,0.5561,0.56,0.5613,0.5755,0.5665,0.5673,0.5679,0.5682,0.5981,0.5983,0,0,0,0,0,0,0.5081,0.5111,0.5326,0.5336,0.5198,0.5316,0.5336,0.5386,0.549,0.5503,0.5429,0.5427,0.5586,0.5602,0.5619,0.5741,0.5675,0.5683,0.5688,0.5978,0.5981,0.5984,0,0,0,0,0,0,0.5074,0.51,0.5319,0.5224,0.5252,0.5324,0.538,0.5391,0.5429,0.5507,0.552,0.5455,0.5585,0.5606,0.5707,0.5747,0.5687,0.5695,0.5975,0.5979,0.5983,0.5987,0,0,0,0,0,0,0.5066,0.5097,0.5136,0.5224,0.5257,0.5404,0.5382,0.5395,0.5444,0.5444,0.5535,0.5548,0.5584,0.5694,0.5716,0.5758,0.5702,0.5972,0.5977,0.5981,0.5984,0.5991,0.5996,0,0,0,0,0,0.5055,0.5131,0.5138,0.5163,0.5307,0.5407,0.5426,0.5466,0.5447,0.5487,0.5536,0.5545,0.5739,0.5704,0.5729,0.5775,0.5969,0.5975,0.5981,0.5981,0.5989,0.5996,0,0,0,0,0,0,0.5047,0.5144,0.5152,0.5259,0.5324,0.5411,0.5462,0.5474,0.5546,0.5543,0.5591,0.5611,0.5709,0.5753,0.5711,0.5876,0.5853,0.5864,0.5844,0.5853,0.5859,0.5846,0.5709,0,0,0,0,0,0.5057,0.513,0.5211,0.5297,0.533,0.539,0.5435,0.546,0.553,0.5558,0.5615,0.5683,0.5759,0.5809,0.5883,0.599,0.6009,0.6034,0.604,0.6045,0.6054,0.6112,0.6123,0.6003,0.6003,0.6003,0,0,0.508,0.5142,0.5185,0.5297,0.5351,0.5425,0.5413,0.5492,0.5547,0.557,0.5668,0.5713,0.5792,0.5895,0.5944,0.5934,0.6091,0.6053,0.6056,0.6062,0.6119,0.613,0.614,0.6007,0.6006,0.6006,0,0,0.5158,0.5213,0.529,0.5344,0.5424,0.5464,0.5482,0.5567,0.5597,0.5696,0.5714,0.578,0.5911,0.5966,0.6011,0.6108,0.6118,0.6131,0.6165,0.622,0.623,0.6238,0.6271,0.6282,0.614,0.614,0.614,0,0.5176,0.5288,0.5328,0.5406,0.5455,0.5478,0.5556,0.5606,0.5707,0.574,0.5728,0.5891,0.5946,0.6062,0.6085,0.6122,0.6143,0.6121,0.6225,0.6234,0.6243,0.6274,0.6287,0.6141,0.6141,0.6141,0.6141,0,0.5305,0.5382,0.5435,0.553,0.5585,0.5663,0.5715,0.5765,0.5785,0.5825,0.5925,0.5992,0.6079,0.6109,0.613,0.6227,0.6219,0.6215,0.6193,0.6254,0.6285,0.6297,0.6142,0.6142,0.6142,0.6141,0,0,0.5382,0.5498,0.5517,0.556,0.565,0.5711,0.5789,0.5874,0.5915,0.5984,0.605,0.6159,0.6156,0.6207,0.6235,0.6284,0.6354,0.6274,0.6277,0.6285,0.6463,0.6463,0.6477,0.6361,0.6364,0.6366,0.6455,0,0.547,0.5609,0.5648,0.5766,0.5836,0.5859,0.5927,0.5989,0.6029,0.6095,0.6139,0.6215,0.6206,0.6237,0.6286,0.6335,0.639,0.6329,0.6422,0.6425,0.64,0.6493,0.6495,0.6576,0.6468,0.647,0.6472,0,0.5591,0.566,0.5785,0.5864,0.5895,0.5956,0.6035,0.6098,0.6169,0.6195,0.6251,0.6273,0.6355,0.6329,0.6441,0.6399,0.6439,0.6469,0.6473,0.6482,0.6451,0.6503,0.6603,0.6615,0.6491,0.649,0.6488,0,0.5632,0.5757,0.5847,0.5884,0.5979,0.6021,0.6063,0.6131,0.6179,0.6249,0.628,0.6359,0.6402,0.6462,0.6505,0.6482,0.6613,0.6591,0.6636,0.6635,0.6661,0.6659,0.6768,0.669,0.669,0.669,0.669,0,0.5724,0.5799,0.5867,0.5922,0.6006,0.605,0.6132,0.6175,0.6236,0.6299,0.6324,0.6384,0.6437,0.6504,0.6538,0.6625,0.6645,0.6667,0.6674,0.6664,0.666,0.669,0.6684,0.6693,0.6692,0.6692,0.6691,0,0.5785,0.5833,0.5932,0.6014,0.6036,0.6095,0.6165,0.6219,0.6259,0.6339,0.6361,0.6424,0.6503,0.6552,0.6653,0.6676,0.6771,0.6777,0.6746,0.6749,0.679,0.6785,0.6921,0.694,0.6851,0.6852,0.6852,0,0.5839,0.5897,0.5985,0.6029,0.6071,0.6142,0.619,0.6235,0.6284,0.6369,0.6412,0.6493,0.656,0.6685,0.674,0.6816,0.6824,0.6866,0.6836,0.6822,0.6823,0.6818,0.6823,0.6871,0.6872,0.6872,0.6873,0,0.5931,0.5952,0.6021,0.6097,0.6154,0.6217,0.6279,0.6314,0.637,0.6424,0.6504,0.6556,0.6658,0.6737,0.6818,0.6861,0.6876,0.6882,0.6896,0.6884,0.6863,0.6873,0.6758,0.6878,0.6878,0.6877,0.6877,0.6877,0.599,0.6041,0.611,0.6185,0.6237,0.6294,0.6348,0.6395,0.6463,0.6549,0.6571,0.6655,0.6724,0.6834,0.6879,0.6945,0.6939,0.6959,0.6964,0.6968,0.6968,0.6854,0.696,0.696,0.696,0.696,0.696,0,0.6081,0.6126,0.6195,0.628,0.6339,0.6348,0.6417,0.6465,0.6539,0.6601,0.6666,0.6758,0.6834,0.6894,0.6973,0.7014,0.7022,0.7033,0.7029,0.7038,0.697,0.6949,0.7024,0.7024,0.7024,0.7024,0.7024,0.7024,0.6135,0.6222,0.6251,0.6363,0.6408,0.649,0.6529,0.6581,0.6631,0.6732,0.6795,0.6834,0.6895,0.6978,0.7048,0.7064,0.7091,0.71,0.7116,0.7051,0.7044,0.7037,0.7017,0.7105,0.7106,0.7179,0.718,0.718]}]]